Regional Weather Roundup
Issued by NWS

Home | Current Version | Previous Version | Text Only | Print | Product List | Glossary Off
Versions: 1 2 3 4 5 6 7 8 9 10 11 12 13 14 15 16 17 18 19 20 21 22 23 24 25 26 27 28 29 30 31 32 33 34 35 36 37 38 39 40 41 42 43 44 45 46 47 48 49 50

000
ASUS43 KTOP 271159
RWRKS

WEATHER ROUNDUP FOR KANSAS
NATIONAL WEATHER SERVICE GOODLAND KS
600 AM CST TUE JAN 27 2015

NOTE:  "FAIR" INDICATES FEW OR NO CLOUDS BELOW 12,000 FEET WITH NO
SIGNIFICANT WEATHER AND/OR OBSTRUCTIONS TO VISIBILITY.

KSZ001>006-013>018-027>032-041>047-271300-
NORTHWEST KANSAS

CITY           SKY/WX    TMP DP  RH WIND       PRES   REMARKS
GOODLAND       CLEAR     44  29  55 W13       30.09F
6HR MIN TEMP:  41; 6HR MAX TEMP:  45;

HAYS           CLEAR     30  19  64 SW6       30.08S
HILL CITY      PTCLDY    30  25  81 W6        30.07S
6HR MIN TEMP:  30; 6HR MAX TEMP:  41;

RUSSELL        CLEAR     32  28  85 SW7       30.06F
6HR MIN TEMP:  32; 6HR MAX TEMP:  38;

$$

KSZ061>065-074>080-084>089-271300-
SOUTHWEST KANSAS

CITY           SKY/WX    TMP DP  RH WIND       PRES   REMARKS
DODGE CITY     CLEAR     39  29  67 SW7       30.12S
6HR MIN TEMP:  37; 6HR MAX TEMP:  46;

ELKHART          N/A     44  28  53 W12         N/A
GARDEN CITY    CLEAR     33  29  85 W9        30.11S
6HR MIN TEMP:  32; 6HR MAX TEMP:  39;

GREAT BEND     PTCLDY    30  23  74 SW5       30.10F
LIBERAL        PTCLDY    36  27  69 NW6       30.16R
$$

KSZ066>073-081>083-090>101-271300-
SOUTHEAST KANSAS

CITY           SKY/WX    TMP DP  RH WIND       PRES   REMARKS
CHANUTE        CLEAR     31  29  92 CALM      30.11R
6HR MIN TEMP:  29; 6HR MAX TEMP:  43;

COFFEYVILLE    CLEAR     31  29  92 CALM      30.12R
6HR MIN TEMP:  31; 6HR MAX TEMP:  43;

HUTCHINSON     CLEAR     35  29  78 W3        30.10S
6HR MIN TEMP:  34; 6HR MAX TEMP:  42;

MEDICINE LODGE   N/A     36  30  79 NW7       30.10S
NEWTON         PTCLDY    45  28  53 E5        30.12S
PARSONS        CLEAR     30  28  92 CALM      30.12R
6HR MIN TEMP:  29; 6HR MAX TEMP:  37;

WICHITA INTL   CLEAR     32  27  81 CALM      30.10S
6HR MIN TEMP:  32; 6HR MAX TEMP:  44;

WICHITA JABRA  PTCLDY    34  29  82 SE3       30.10S
6HR MIN TEMP:  32; 6HR MAX TEMP:  48;

WINFIELD       CLEAR     32  28  85 CALM      30.11S
6HR MIN TEMP:  28; 6HR MAX TEMP:  40;

$$

KSZ007>012-019>026-033>040-048>060-102>105-271300-
NORTHEAST KANSAS

CITY           SKY/WX    TMP DP  RH WIND       PRES   REMARKS
CONCORDIA      CLEAR     35  31  85 SE5       30.08S
6HR MIN TEMP:  31; 6HR MAX TEMP:  43;

EMPORIA        CLEAR     37  29  72 NW3       30.10S
6HR MIN TEMP:  35; 6HR MAX TEMP:  43;

LAWRENCE       CLEAR     23  20  88 NW7       30.11R
6HR MIN TEMP:  22; 6HR MAX TEMP:  29;

MANHATTAN      CLEAR     26  23  88 CALM      30.11R
6HR MIN TEMP:  24; 6HR MAX TEMP:  33;

OLATHE IND     CLEAR     31  28  89 N8        30.10R
6HR MIN TEMP:  30; 6HR MAX TEMP:  41;

OLATHE EXE     CLEAR     36  31  82 N6        30.09R
6HR MIN TEMP:  36; 6HR MAX TEMP:  43;

SALINA         FAIR      31  27  85 CALM      30.10S
6HR MIN TEMP:  31; 6HR MAX TEMP:  39;

TOPEKA BILLARD CLEAR     27  24  89 CALM      30.12R
6HR MIN TEMP:  26; 6HR MAX TEMP:  34;

TOPEKA FORBES  CLEAR     32  26  78 NW3       30.10R
6HR MIN TEMP:  29; 6HR MAX TEMP:  40;

$$


USA.gov is the U.S. government's official web portal to all federal, state and local government web resources and services.